Temp
30 32 33 34 33 33 32 33 33 33 33 33 33 33 33 33 33 32 31 31 31 31 29 26 26 25 25 23 22 20 20 19 19 19 18 19 19 19 19 20 19 19 18 17
31 32 33 33 32 32 32 32 33 34 33 33 34 33 33 33 33 32 31 30 30 29 28 26 25 25 25 23 22 20 20 19 19 19 19 19 20 20 20 20 20 19 18 18
32 33 32 32 32 32 32 32 33 32 33 34 33 33 33 33 32 31 30 29 28 28 27 26 25 25 25 23 22 21 20 19 19 19 19 19 20 20 20 20 20 19 18 17
33 33 32 32 32 32 33 33 32 32 32 33 34 32 32 33 33 33 32 30 28 27 26 25 25 24 25 24 22 21 20 19 19 19 19 19 21 21 20 20 20 20 19 17
32 32 32 31 31 32 31 32 32 32 32 33 33 32 32 33 32 33 32 30 29 28 27 26 25 23 23 23 23 22 21 20 19 19 19 18 22 20 20 20 20 20 20 19
32 32 32 32 32 32 32 32 32 32 33 32 33 32 33 33 32 32 31 30 29 28 27 25 24 23 23 23 22 21 20 20 20 19 20 19 19 19 20 21 21 20 20 19
32 32 33 31 31 32 32 32 31 31 32 32 32 31 32 32 32 32 31 30 29 28 27 26 25 24 23 22 21 21 20 19 19 19 21 19 19 19 19 19 20 22 21 20
31 31 32 32 31 31 31 31 30 28 30 31 32 30 31 31 30 29 29 29 29 28 27 26 25 24 23 22 22 21 20 19 19 19 19 19 19 18 19 19 19 20 21 21
31 31 31 31 31 31 31 29 32 29 31 30 32 32 32 31 31 30 30 29 28 27 26 25 25 24 23 22 22 21 20 19 19 19 19 19 19 19 19 19 19 19 20 21
31 29 32 31 30 31 30 31 29 31 28 28 31 30 30 29 30 30 29 29 27 26 25 25 24 24 23 22 22 21 21 20 19 19 19 19 19 19 20 20 19 19 20 20
32 30 31 30 30 30 30 30 29 30 29 28 28 30 31 30 30 29 28 28 26 26 25 24 23 23 22 22 22 21 21 20 19 19 18 18 18 18 18 19 19 19 19 19
30 30 29 30 30 30 30 29 29 29 27 29 28 29 32 30 29 29 28 27 25 24 24 23 23 22 22 21 21 21 20 19 19 18 17 18 18 18 18 18 19 19 19 19
29 28 28 29 30 30 28 29 29 29 28 26 26 28 31 30 29 28 27 26 24 23 23 23 22 22 21 21 21 20 19 19 19 18 17 17 17 17 18 17 18 18 19 19
26 27 27 27 28 29 28 28 28 28 27 27 28 28 29 29 28 27 26 25 23 23 23 22 22 21 20 20 20 19 19 19 19 18 17 16 16 16 17 17 17 18 19 19
27 25 27 27 28 28 28 28 28 27 27 27 27 27 28 28 26 25 24 23 23 23 22 22 21 20 20 19 19 18 17 17 16 16 16 16 16 15 16 16 16 17 18 19
27 25 25 25 27 27 26 27 27 27 27 27 27 27 28 26 25 25 24 24 23 22 22 21 21 20 19 19 18 16 15 15 15 16 16 16 15 15 15 16 17 17 18 18
26 25 24 24 26 26 25 27 27 27 28 27 26 27 27 26 24 23 23 22 22 21 20 20 20 19 19 17 17 15 15 15 15 15 15 15 15 15 16 15 15 17 17 18
24 23 24 23 24 22 27 28 27 26 26 27 27 26 25 24 23 22 22 22 21 20 20 19 19 18 18 16 15 14 15 15 14 14 14 14 15 15 15 15 15 16 16 17
26 24 23 23 24 25 27 27 26 25 24 26 26 25 24 24 23 23 21 20 20 19 19 18 18 18 17 15 14 14 14 14 14 14 14 14 14 15 15 15 15 15 15 16
25 24 23 23 23 23 26 25 23 24 22 24 24 23 23 22 22 22 20 20 19 19 18 18 18 17 16 14 14 13 13 14 14 13 14 14 14 14 14 14 14 15 15 16
23 22 22 23 22 24 26 25 23 21 22 22 21 21 22 22 21 20 20 20 19 18 18 17 16 16 14 14 13 13 13 13 13 14 14 13 14 14 14 14 14 15 15 15
23 23 23 23 22 22 24 23 22 22 21 21 21 22 21 20 20 20 20 19 18 18 17 16 16 14 14 13 13 12 13 13 13 13 13 13 13 13 14 14 14 15 14 14
22 23 23 23 22 22 22 22 21 21 21 21 21 21 20 20 20 20 19 19 18 17 16 15 14 14 13 13 12 12 13 13 12 13 13 13 13 14 14 14 14 15 15 14
24 23 23 22 23 23 22 22 21 21 19 20 20 20 20 19 19 19 18 18 17 16 14 13 13 13 13 12 12 13 13 12 12 13 13 13 14 14 15 15 15 15 14 14
23 21 21 21 22 22 22 21 19 19 19 19 19 19 19 19 19 18 18 17 17 15 13 13 13 13 13 12 12 12 12 11 12 13 13 14 15 15 15 15 15 14 15 14
22 22 22 21 21 20 20 19 19 19 18 18 19 18 19 18 18 18 17 17 16 14 13 12 12 12 11 11 11 11 11 11 11 12 14 15 15 15 16 15 15 15 14 15
Height
1494 1489 1482 1471 1476 1478 1480 1480 1479 1473 1474 1476 1473 1474 1473 1475 1473 1477 1481 1481 1482 1484 1489 1494 1499 1503 1507 1511 1514 1517 1520 1523 1526 1530 1532 1534 1536 1539 1542 1544 1547 1547 1548 1550
1490 1484 1474 1482 1482 1482 1480 1481 1475 1471 1475 1476 1469 1472 1472 1475 1478 1480 1484 1485 1483 1488 1492 1496 1499 1502 1505 1509 1513 1515 1518 1521 1524 1527 1528 1532 1534 1537 1538 1542 1543 1544 1543 1545
1482 1476 1483 1484 1481 1483 1478 1478 1475 1479 1471 1467 1470 1470 1472 1473 1477 1481 1485 1490 1490 1492 1494 1497 1500 1503 1505 1508 1512 1514 1515 1518 1519 1523 1524 1525 1529 1536 1535 1537 1540 1541 1544 1543
1478 1479 1484 1481 1480 1478 1476 1474 1479 1479 1480 1478 1466 1485 1468 1468 1470 1475 1481 1486 1492 1495 1498 1500 1501 1503 1505 1507 1509 1510 1512 1514 1516 1517 1519 1518 1520 1525 1533 1532 1535 1534 1535 1540
1481 1482 1482 1483 1482 1480 1482 1478 1478 1477 1478 1475 1467 1478 1469 1465 1471 1471 1477 1487 1493 1496 1499 1501 1502 1504 1506 1507 1508 1508 1509 1510 1512 1512 1515 1516 1516 1520 1526 1524 1528 1532 1526 1531
1478 1481 1482 1478 1480 1482 1481 1480 1475 1471 1470 1482 1463 1472 1468 1465 1469 1472 1480 1489 1494 1496 1499 1501 1503 1504 1505 1506 1506 1506 1505 1506 1506 1507 1508 1511 1512 1513 1518 1518 1519 1521 1515 1521
1473 1476 1477 1483 1483 1479 1480 1476 1485 1484 1476 1477 1465 1478 1470 1467 1473 1476 1481 1489 1494 1495 1497 1499 1501 1503 1504 1504 1504 1503 1502 1502 1503 1503 1498 1506 1504 1506 1508 1512 1511 1513 1515 1510
1480 1486 1475 1478 1479 1480 1479 1484 1495 1511 1495 1480 1462 1485 1472 1473 1478 1484 1489 1490 1493 1494 1496 1499 1501 1502 1502 1502 1501 1500 1499 1499 1499 1500 1500 1499 1496 1498 1500 1502 1502 1505 1507 1508
1478 1479 1474 1479 1481 1484 1482 1492 1473 1491 1480 1485 1470 1461 1461 1469 1476 1481 1484 1489 1491 1496 1499 1499 1500 1500 1501 1500 1499 1498 1495 1495 1494 1493 1493 1490 1489 1488 1490 1492 1494 1497 1498 1502
1474 1490 1471 1478 1484 1482 1485 1480 1494 1478 1505 1504 1474 1475 1473 1474 1474 1478 1484 1487 1491 1496 1497 1497 1497 1497 1497 1497 1495 1494 1493 1491 1489 1488 1486 1484 1481 1479 1480 1482 1486 1486 1490 1493
1473 1481 1476 1477 1481 1481 1482 1483 1482 1478 1485 1497 1499 1480 1463 1472 1474 1480 1486 1488 1491 1493 1494 1494 1494 1494 1494 1492 1491 1490 1487 1485 1484 1483 1481 1478 1476 1474 1473 1473 1474 1476 1481 1483
1478 1478 1483 1476 1471 1477 1480 1484 1483 1488 1495 1481 1485 1484 1460 1471 1477 1481 1484 1487 1492 1493 1492 1492 1492 1491 1490 1488 1486 1484 1483 1481 1479 1477 1474 1472 1471 1470 1468 1467 1467 1469 1470 1474
1482 1485 1491 1482 1472 1468 1484 1480 1480 1481 1486 1499 1502 1486 1460 1468 1472 1477 1482 1484 1489 1492 1492 1491 1489 1488 1487 1484 1482 1480 1478 1477 1475 1473 1470 1467 1465 1463 1463 1462 1461 1462 1462 1464
1493 1490 1492 1493 1480 1476 1484 1481 1479 1483 1492 1485 1480 1475 1470 1470 1472 1477 1481 1484 1488 1490 1489 1487 1486 1485 1483 1481 1478 1475 1473 1471 1469 1467 1464 1461 1457 1456 1455 1454 1454 1454 1454 1457
1491 1496 1488 1482 1479 1479 1479 1480 1479 1482 1480 1486 1478 1477 1472 1471 1475 1480 1485 1486 1486 1487 1486 1484 1482 1481 1479 1477 1474 1470 1468 1465 1463 1460 1458 1455 1453 1450 1446 1445 1445 1446 1448 1449
1486 1494 1492 1492 1483 1482 1483 1477 1477 1477 1475 1474 1473 1474 1466 1474 1479 1481 1481 1481 1482 1484 1483 1481 1479 1477 1474 1472 1470 1466 1462 1460 1458 1454 1452 1450 1448 1444 1441 1438 1437 1439 1441 1442
1489 1490 1495 1495 1482 1480 1486 1474 1473 1470 1466 1468 1473 1466 1468 1473 1478 1481 1482 1483 1483 1482 1481 1479 1476 1474 1471 1470 1467 1463 1459 1456 1453 1450 1447 1445 1444 1441 1437 1434 1432 1432 1433 1435
1492 1495 1496 1496 1490 1502 1468 1460 1467 1468 1469 1468 1466 1468 1473 1478 1480 1483 1482 1479 1479 1479 1478 1476 1473 1471 1468 1466 1462 1459 1456 1454 1450 1446 1442 1441 1440 1438 1435 1431 1430 1429 1429 1431
1485 1488 1493 1495 1487 1474 1464 1459 1463 1469 1472 1467 1467 1470 1474 1477 1478 1478 1479 1480 1479 1477 1474 1472 1468 1465 1463 1460 1457 1455 1454 1451 1448 1445 1443 1438 1437 1434 1432 1430 1428 1427 1426 1427
1480 1485 1493 1488 1489 1488 1465 1464 1473 1474 1481 1471 1470 1474 1476 1478 1477 1474 1475 1476 1474 1472 1469 1466 1462 1459 1457 1455 1453 1450 1449 1447 1444 1443 1437 1439 1437 1435 1432 1429 1426 1427 1425 1425
1484 1488 1490 1485 1485 1473 1461 1464 1472 1487 1482 1478 1480 1481 1477 1477 1478 1476 1476 1474 1472 1468 1464 1461 1457 1454 1452 1450 1449 1448 1446 1445 1442 1441 1436 1440 1436 1435 1433 1429 1425 1425 1424 1424
1474 1476 1474 1472 1476 1479 1464 1468 1477 1473 1476 1479 1477 1475 1476 1477 1475 1475 1473 1471 1468 1464 1460 1456 1451 1449 1448 1447 1446 1445 1445 1444 1441 1439 1439 1438 1435 1435 1432 1430 1427 1424 1424 1423
1476 1470 1470 1469 1470 1474 1472 1474 1474 1475 1475 1475 1474 1474 1474 1473 1473 1471 1470 1467 1464 1460 1456 1452 1447 1444 1443 1445 1444 1443 1444 1444 1441 1441 1438 1436 1435 1434 1432 1432 1428 1426 1425 1424
1462 1468 1467 1471 1467 1467 1467 1470 1471 1473 1474 1473 1473 1472 1470 1470 1469 1469 1466 1463 1460 1456 1453 1448 1444 1441 1441 1442 1441 1442 1441 1440 1439 1439 1437 1437 1435 1435 1434 1432 1431 1428 1427 1427
1462 1471 1471 1468 1466 1467 1467 1468 1470 1473 1473 1472 1471 1468 1468 1465 1464 1464 1462 1459 1455 1453 1449 1444 1440 1438 1438 1438 1439 1440 1439 1439 1438 1439 1437 1436 1435 1434 1434 1432 1431 1430 1429 1429
1465 1463 1464 1464 1466 1466 1469 1471 1471 1471 1471 1469 1467 1464 1463 1463 1462 1460 1458 1455 1452 1450 1446 1440 1436 1435 1433 1433 1437 1437 1437 1437 1437 1437 1436 1435 1434 1434 1434 1433 1431 1431 1431 1430
Wind_Speed
10 10 12 3 9 8 6 7 6 3 3 10 4 3 5 3 6 10 10 6 6 6 8 12 15 17 20 20 21 23 24 25 24 21 20 21 21 21 21 21 22 24 23 23
7 12 9 3 6 8 9 8 8 3 1 7 4 3 3 3 6 7 12 12 12 11 9 10 12 15 18 18 19 21 22 23 24 23 25 20 19 19 20 21 24 26 25 26
13 12 3 6 8 9 12 9 7 8 3 12 7 13 9 11 8 10 12 12 13 12 11 8 10 12 14 15 17 18 19 22 25 25 24 25 20 21 21 20 22 24 26 28
8 8 5 8 7 6 13 5 5 9 10 9 3 1 12 9 9 8 10 12 12 12 11 10 8 8 7 8 13 18 19 21 22 24 27 32 25 24 25 19 22 24 26 29
7 6 6 9 5 8 7 6 6 9 11 12 12 7 11 10 7 7 11 8 9 8 9 8 9 8 7 5 5 7 16 19 20 25 29 31 37 25 23 29 26 29 23 31
12 3 6 8 2 5 7 10 14 13 13 12 10 4 5 8 7 8 9 7 5 6 7 7 6 5 4 3 1 1 4 13 18 21 24 31 30 29 27 28 35 35 24 28
14 12 6 7 9 9 11 16 10 8 10 3 8 5 7 9 7 6 8 3 3 2 5 4 3 2 2 2 2 2 3 4 10 17 18 31 31 35 32 34 36 38 29 27
7 10 11 6 7 9 6 8 7 11 10 12 6 6 5 8 7 7 4 4 2 2 5 4 3 3 4 5 6 5 4 5 7 11 19 26 28 30 32 35 39 36 39 32
9 8 7 2 2 5 4 8 9 10 17 12 11 4 9 10 6 6 1 3 4 6 7 5 5 5 7 7 7 7 7 8 9 10 13 18 24 32 32 34 35 42 33 35
3 10 12 10 5 11 10 11 10 9 6 10 6 4 8 9 6 3 4 8 9 11 12 12 10 10 9 10 10 9 10 11 11 12 12 15 20 24 32 34 35 36 44 39
11 6 4 5 12 13 8 10 6 9 8 11 10 4 8 3 3 3 9 15 18 15 13 13 13 13 13 13 13 13 12 13 13 12 13 13 16 18 21 29 34 38 39 40
4 6 10 13 8 1 10 15 16 10 10 9 11 11 9 7 5 9 12 12 14 13 13 13 14 15 15 15 14 14 14 14 13 13 13 13 15 17 21 25 29 32 36 38
5 7 10 15 17 12 5 9 8 9 8 14 12 10 4 1 6 11 15 14 10 15 15 16 17 17 18 18 17 17 17 17 16 15 15 14 15 16 19 23 25 27 30 35
5 11 12 13 16 12 7 9 10 12 11 13 13 17 15 15 15 14 15 14 13 16 18 19 17 16 16 18 18 19 18 18 18 17 18 18 18 18 18 19 24 28 28 31
6 11 12 14 14 14 17 16 16 17 18 18 19 21 19 13 10 9 12 14 15 18 20 20 19 17 17 19 19 18 19 19 18 19 17 16 17 18 20 18 23 26 26 29
10 10 11 15 16 17 20 20 20 21 21 21 21 21 8 5 6 10 14 16 15 20 21 21 20 19 20 20 20 18 16 14 17 17 16 16 16 18 21 20 19 23 28 24
9 9 10 16 16 16 16 17 17 20 18 16 16 10 12 10 13 15 17 18 18 19 22 23 23 23 21 21 19 17 15 14 15 17 16 15 16 16 17 17 15 19 24 28
12 11 10 13 15 18 18 7 9 11 12 14 15 8 9 10 10 11 21 21 12 18 24 26 25 24 22 21 18 16 13 14 14 13 11 12 13 14 13 11 12 13 17 24
15 11 12 13 15 17 16 5 8 6 10 11 12 7 8 12 13 18 9 12 18 23 26 26 25 24 22 21 16 13 12 11 10 8 8 9 12 12 10 9 8 9 13 15
6 8 10 14 16 16 10 8 4 4 13 11 5 3 9 13 11 9 23 24 26 25 26 27 26 24 22 20 15 12 13 6 6 7 5 7 8 9 9 7 6 11 10 13
11 10 13 12 14 16 14 8 5 9 4 5 7 12 16 11 13 21 23 25 25 26 26 26 24 21 18 15 12 10 8 8 3 6 5 6 5 6 8 9 7 5 9 9
15 13 13 12 16 18 10 6 8 9 5 12 16 18 13 11 19 20 21 23 24 26 26 26 24 18 14 11 11 10 8 7 4 5 6 6 6 7 7 8 6 3 2 5
15 15 12 13 7 2 3 5 7 12 15 18 17 16 13 14 18 21 23 23 25 26 26 25 21 15 12 9 8 5 7 8 8 6 6 6 6 7 4 8 7 6 4 1
8 15 13 12 15 20 17 19 10 11 16 16 20 17 18 17 19 22 23 23 25 23 24 23 19 14 10 10 10 11 8 6 8 7 4 6 4 5 4 3 6 8 7 4
13 3 9 13 15 18 22 13 15 19 17 20 22 16 17 19 20 22 23 23 23 21 22 22 18 14 13 13 12 13 12 8 7 6 6 5 5 6 4 3 2 6 3 5
15 14 12 12 20 18 14 18 20 20 20 21 22 19 20 21 21 20 23 22 22 20 20 17 16 8 7 7 11 13 9 8 9 8 7 5 6 5 4 4 1 2 3 4
Wind_Direction
210 237 227 41 12 340 319 293 288 110 59 281 60 346 74 68 69 80 65 72 81 125 148 167 182 190 192 193 197 200 204 203 201 199 202 206 210 216 219 217 219 218 213 210
199 236 55 339 303 286 276 271 258 179 147 270 288 222 113 118 88 72 91 69 94 111 126 152 176 182 191 195 201 205 207 210 209 210 211 215 217 222 224 226 227 218 219 220
273 63 49 270 280 256 250 272 331 319 317 243 261 233 178 146 164 129 107 93 83 86 103 131 159 180 192 201 207 215 216 218 218 207 230 210 217 230 226 225 229 234 228 224
242 83 281 274 262 293 276 62 290 278 276 302 186 85 185 143 161 178 127 112 96 97 99 109 129 154 176 187 210 216 223 220 222 221 224 227 225 240 234 224 234 225 239 233
106 225 246 273 22 299 34 326 298 293 276 273 256 242 121 185 173 162 110 91 97 93 94 102 108 119 134 154 187 209 228 230 224 236 231 229 230 233 228 234 229 241 224 250
280 122 266 312 124 275 329 272 245 242 248 247 229 304 284 60 71 123 114 110 103 101 103 98 101 104 108 111 128 201 207 215 237 233 238 238 227 234 218 239 223 226 224 233
216 217 160 259 237 204 245 261 276 230 233 265 114 279 299 89 80 25 86 127 106 95 96 94 82 57 57 30 360 1 263 230 224 247 255 246 241 233 231 223 237 235 233 221
248 187 189 149 275 338 315 325 304 303 298 313 336 252 114 67 105 124 155 193 240 45 24 348 349 339 340 339 332 332 305 269 259 247 246 256 256 245 239 234 226 234 233 231
307 235 129 198 229 261 170 255 1 306 265 247 256 186 159 132 167 185 283 0 5 356 320 323 306 297 295 303 308 309 306 292 278 275 269 268 259 255 240 231 235 225 229 226
1 282 198 148 237 223 269 333 280 234 267 278 297 314 248 162 186 161 296 336 323 318 311 308 306 301 297 294 298 295 294 289 284 279 276 269 263 254 246 245 235 231 226 227
288 240 239 150 233 245 187 236 204 277 310 298 293 301 70 2 282 351 324 316 337 320 300 304 307 305 302 297 293 290 291 287 286 279 273 274 257 255 250 246 244 238 233 228
58 285 271 262 129 262 275 280 281 282 290 296 308 284 15 34 324 298 291 319 317 317 315 311 308 305 304 300 296 292 292 287 281 281 282 278 273 264 257 248 242 241 237 236
338 245 263 238 237 193 245 265 246 274 281 265 276 279 333 98 243 325 326 301 308 309 309 309 306 305 302 301 295 292 285 280 276 274 275 279 276 269 261 259 250 241 238 236
301 269 266 286 321 320 276 252 252 264 272 283 277 296 301 305 316 325 313 322 309 299 304 307 307 304 305 303 297 293 287 279 276 276 274 278 278 274 272 260 259 244 237 232
251 270 279 279 288 284 287 280 276 273 276 275 290 296 298 324 4 340 312 288 295 307 310 312 307 305 304 305 303 294 286 275 273 272 277 277 280 281 277 266 250 249 240 235
244 267 282 278 278 282 277 274 272 272 276 274 278 279 302 356 295 287 297 304 314 304 310 311 307 304 307 303 301 296 293 288 284 271 277 276 275 283 283 273 257 247 233 232
251 274 281 278 294 291 275 265 266 266 258 270 277 298 342 337 342 325 316 313 303 311 313 312 308 306 303 299 295 290 289 294 292 283 274 277 277 277 279 286 270 250 240 237
251 260 273 275 278 263 271 290 294 299 298 295 291 303 358 322 298 304 296 285 297 307 310 308 303 300 297 293 286 288 294 300 301 298 292 294 293 279 282 291 270 261 246 242
247 246 268 267 259 269 272 260 254 239 294 308 308 321 312 303 307 292 7 335 315 307 304 302 298 295 291 285 282 283 290 298 304 314 320 343 320 308 286 273 287 273 255 236
258 254 259 260 273 274 296 106 63 337 280 14 11 319 308 319 293 319 337 327 317 310 306 302 297 289 286 277 269 276 269 268 309 313 359 346 344 338 334 312 313 267 245 235
210 221 239 247 255 262 266 104 129 258 358 2 325 298 294 310 312 316 313 309 310 309 308 304 298 288 275 266 260 259 260 243 256 321 17 321 359 345 343 335 325 278 250 227
247 240 237 238 257 269 46 149 239 355 332 296 309 304 308 301 306 303 307 310 311 309 311 303 294 273 259 257 254 251 241 243 244 302 310 317 353 347 1 348 3 20 225 217
240 258 282 289 329 103 276 262 315 311 298 292 291 299 294 303 300 308 310 310 310 311 311 305 293 263 251 239 242 246 251 255 262 259 287 315 340 339 356 355 356 18 43 97
229 232 245 252 267 288 258 255 292 327 331 306 297 297 301 295 301 304 307 310 312 313 311 306 297 263 237 222 230 230 237 296 285 287 298 312 331 310 335 26 8 38 42 53
302 224 270 264 269 266 272 292 325 311 298 299 291 280 284 298 299 303 306 310 311 315 314 310 300 266 233 226 234 242 244 268 308 310 311 295 288 292 299 319 346 48 70 88
269 273 266 284 312 315 303 303 297 291 298 290 285 302 295 295 296 302 304 310 311 312 311 315 315 263 233 233 254 249 257 273 292 301 304 299 271 260 257 297 305 13 57 89